Time,TemperatureF,DewpointF,PressureIn,WindDirection,WindDirectionDegrees,WindSpeedMPH,WindSpeedGustMPH,Humidity,HourlyPrecipIn,Conditions,Clouds,dailyrainin,SoftwareType,DateUTC
2013-06-01 00:00:00,81.0,-99.9,-100.00,SE,140,25.0,-999.0,107,0.00,,,-99.99,,2013-06-01 05:00:00,
2013-06-01 00:22:00,81.0,-99.9,-100.00,SE,140,25.0,-999.0,107,0.00,,,-99.99,,2013-06-01 05:22:00,
2013-06-01 00:32:00,81.0,-99.9,-100.00,SE,140,25.0,-999.0,107,0.00,,,-99.99,,2013-06-01 05:32:00,
2013-06-01 00:43:00,81.0,-99.9,-100.00,SE,140,25.0,-999.0,107,0.00,,,-99.99,,2013-06-01 05:43:00,
2013-06-01 00:52:00,81.0,-99.9,-100.00,SE,140,25.0,-999.0,107,0.00,,,-99.99,,2013-06-01 05:52:00,
2013-06-01 01:00:00,81.0,-99.9,-100.00,SSE,149,24.0,-999.0,105,0.00,,,-99.99,,2013-06-01 06:00:00,
2013-06-01 01:22:00,81.0,-99.9,-100.00,SSE,149,24.0,-999.0,105,0.00,,,-99.99,,2013-06-01 06:22:00,
2013-06-01 01:32:00,81.0,-99.9,-100.00,SSE,149,24.0,-999.0,105,0.00,,,-99.99,,2013-06-01 06:32:00,
2013-06-01 01:42:00,81.0,-99.9,-100.00,SSE,149,24.0,-999.0,105,0.00,,,-99.99,,2013-06-01 06:42:00,
2013-06-01 01:52:00,81.0,-99.9,-100.00,SSE,149,24.0,-999.0,105,0.00,,,-99.99,,2013-06-01 06:52:00,
2013-06-01 02:00:00,81.0,-99.9,-100.00,SSE,150,24.0,-999.0,107,0.00,,,-99.99,,2013-06-01 07:00:00,
2013-06-01 02:22:00,81.0,-99.9,-100.00,SSE,150,24.0,-999.0,107,0.00,,,-99.99,,2013-06-01 07:22:00,
2013-06-01 02:32:00,81.0,-99.9,-100.00,SSE,150,24.0,-999.0,107,0.00,,,-99.99,,2013-06-01 07:32:00,
2013-06-01 02:42:00,81.0,-99.9,-100.00,SSE,150,24.0,-999.0,107,0.00,,,-99.99,,2013-06-01 07:42:00,
2013-06-01 02:52:00,81.0,-99.9,-100.00,SSE,150,24.0,-999.0,107,0.00,,,-99.99,,2013-06-01 07:52:00,
2013-06-01 03:00:00,81.0,-99.9,-100.00,SSE,153,25.0,-999.0,106,0.00,,,-99.99,,2013-06-01 08:00:00,
2013-06-01 03:22:00,81.0,-99.9,-100.00,SSE,153,25.0,-999.0,106,0.00,,,-99.99,,2013-06-01 08:22:00,
2013-06-01 03:32:00,81.0,-99.9,-100.00,SSE,153,25.0,-999.0,106,0.00,,,-99.99,,2013-06-01 08:32:00,
2013-06-01 03:42:00,81.0,-99.9,-100.00,SSE,153,25.0,-999.0,106,0.00,,,-99.99,,2013-06-01 08:42:00,
2013-06-01 03:52:00,81.0,-99.9,-100.00,SSE,153,25.0,-999.0,106,0.00,,,-99.99,,2013-06-01 08:52:00,
2013-06-01 04:00:00,81.0,-99.9,-100.00,SSE,154,24.0,-999.0,106,0.00,,,-99.99,,2013-06-01 09:00:00,
2013-06-01 04:22:00,81.0,-99.9,-100.00,SSE,154,24.0,-999.0,106,0.00,,,-99.99,,2013-06-01 09:22:00,
2013-06-01 04:33:00,81.0,-99.9,-100.00,SSE,154,24.0,-999.0,106,0.00,,,-99.99,,2013-06-01 09:33:00,
2013-06-01 04:43:00,81.0,-99.9,-100.00,SSE,154,24.0,-999.0,106,0.00,,,-99.99,,2013-06-01 09:43:00,
2013-06-01 04:53:00,81.0,-99.9,-100.00,SSE,154,24.0,-999.0,106,0.00,,,-99.99,,2013-06-01 09:53:00,
2013-06-01 05:00:00,81.0,-99.9,-100.00,SSE,152,23.0,-999.0,104,0.00,,,-99.99,,2013-06-01 10:00:00,
2013-06-01 05:22:00,81.0,-99.9,-100.00,SSE,152,23.0,-999.0,104,0.00,,,-99.99,,2013-06-01 10:22:00,
2013-06-01 05:33:00,81.0,-99.9,-100.00,SSE,152,23.0,-999.0,104,0.00,,,-99.99,,2013-06-01 10:33:00,
2013-06-01 05:43:00,81.0,-99.9,-100.00,SSE,152,23.0,-999.0,104,0.00,,,-99.99,,2013-06-01 10:43:00,
2013-06-01 05:53:00,81.0,-99.9,-100.00,SSE,152,23.0,-999.0,104,0.00,,,-99.99,,2013-06-01 10:53:00,
2013-06-01 06:00:00,81.0,79.0,-100.00,SSE,158,26.0,-999.0,95,0.00,,,-99.99,,2013-06-01 11:00:00,
2013-06-01 06:21:00,81.0,79.0,-100.00,SSE,158,26.0,-999.0,95,0.00,,,-99.99,,2013-06-01 11:21:00,
2013-06-01 06:32:00,81.0,79.0,-100.00,SSE,158,26.0,-999.0,95,0.00,,,-99.99,,2013-06-01 11:32:00,
2013-06-01 06:42:00,81.0,79.0,-100.00,SSE,158,26.0,-999.0,95,0.00,,,-99.99,,2013-06-01 11:42:00,
2013-06-01 06:52:00,81.0,79.0,-100.00,SSE,158,26.0,-999.0,95,0.00,,,-99.99,,2013-06-01 11:52:00,
2013-06-01 07:00:00,81.0,-99.9,-100.00,SSE,161,21.0,-999.0,101,0.00,,,-99.99,,2013-06-01 12:00:00,
2013-06-01 07:22:00,81.0,-99.9,-100.00,SSE,161,21.0,-999.0,101,0.00,,,-99.99,,2013-06-01 12:22:00,
2013-06-01 07:32:00,81.0,-99.9,-100.00,SSE,161,21.0,-999.0,101,0.00,,,-99.99,,2013-06-01 12:32:00,
2013-06-01 07:42:00,81.0,-99.9,-100.00,SSE,161,21.0,-999.0,101,0.00,,,-99.99,,2013-06-01 12:42:00,
2013-06-01 07:52:00,81.0,-99.9,-100.00,SSE,161,21.0,-999.0,101,0.00,,,-99.99,,2013-06-01 12:52:00,
2013-06-01 08:00:00,81.0,78.0,-100.00,SSE,162,22.0,-999.0,92,0.00,,,-99.99,,2013-06-01 13:00:00,
2013-06-01 08:22:00,81.0,78.0,-100.00,SSE,162,22.0,-999.0,92,0.00,,,-99.99,,2013-06-01 13:22:00,
2013-06-01 08:32:00,81.0,78.0,-100.00,SSE,162,22.0,-999.0,92,0.00,,,-99.99,,2013-06-01 13:32:00,
2013-06-01 08:42:00,81.0,78.0,-100.00,SSE,162,22.0,-999.0,92,0.00,,,-99.99,,2013-06-01 13:42:00,
2013-06-01 08:52:00,81.0,78.0,-100.00,SSE,162,22.0,-999.0,92,0.00,,,-99.99,,2013-06-01 13:52:00,
2013-06-01 09:00:00,81.0,77.0,-100.00,SSE,165,19.0,-999.0,87,0.00,,,-99.99,,2013-06-01 14:00:00,
2013-06-01 09:21:00,81.0,77.0,-100.00,SSE,165,19.0,-999.0,87,0.00,,,-99.99,,2013-06-01 14:21:00,
2013-06-01 09:32:00,81.0,77.0,-100.00,SSE,165,19.0,-999.0,87,0.00,,,-99.99,,2013-06-01 14:32:00,
2013-06-01 09:42:00,81.0,77.0,-100.00,SSE,165,19.0,-999.0,87,0.00,,,-99.99,,2013-06-01 14:42:00,
2013-06-01 09:52:00,81.0,77.0,-100.00,SSE,165,19.0,-999.0,87,0.00,,,-99.99,,2013-06-01 14:52:00,
2013-06-01 10:00:00,81.0,76.0,-100.00,SSE,163,21.0,-999.0,84,0.00,,,-99.99,,2013-06-01 15:00:00,
2013-06-01 10:21:00,81.0,76.0,-100.00,SSE,163,21.0,-999.0,84,0.00,,,-99.99,,2013-06-01 15:21:00,
2013-06-01 10:33:00,81.0,76.0,-100.00,SSE,163,21.0,-999.0,84,0.00,,,-99.99,,2013-06-01 15:33:00,
2013-06-01 10:43:00,81.0,76.0,-100.00,SSE,163,21.0,-999.0,84,0.00,,,-99.99,,2013-06-01 15:43:00,
2013-06-01 10:53:00,81.0,76.0,-100.00,SSE,163,21.0,-999.0,84,0.00,,,-99.99,,2013-06-01 15:53:00,
2013-06-01 11:00:00,82.0,76.0,-100.00,SSE,162,19.0,-999.0,83,0.00,,,-99.99,,2013-06-01 16:00:00,
2013-06-01 11:23:00,82.0,76.0,-100.00,SSE,162,19.0,-999.0,83,0.00,,,-99.99,,2013-06-01 16:23:00,
2013-06-01 11:33:00,82.0,76.0,-100.00,SSE,162,19.0,-999.0,83,0.00,,,-99.99,,2013-06-01 16:33:00,
2013-06-01 11:42:00,82.0,76.0,-100.00,SSE,162,19.0,-999.0,83,0.00,,,-99.99,,2013-06-01 16:42:00,
2013-06-01 11:52:00,82.0,76.0,-100.00,SSE,162,19.0,-999.0,83,0.00,,,-99.99,,2013-06-01 16:52:00,
2013-06-01 12:00:00,82.0,76.0,-100.00,SSE,155,18.0,-999.0,82,0.00,,,-99.99,,2013-06-01 17:00:00,
2013-06-01 12:22:00,82.0,76.0,-100.00,SSE,155,18.0,-999.0,82,0.00,,,-99.99,,2013-06-01 17:22:00,
2013-06-01 12:32:00,82.0,76.0,-100.00,SSE,155,18.0,-999.0,82,0.00,,,-99.99,,2013-06-01 17:32:00,
2013-06-01 12:42:00,82.0,76.0,-100.00,SSE,155,18.0,-999.0,82,0.00,,,-99.99,,2013-06-01 17:42:00,
2013-06-01 12:52:00,82.0,76.0,-100.00,SSE,155,18.0,-999.0,82,0.00,,,-99.99,,2013-06-01 17:52:00,
2013-06-01 13:00:00,82.0,77.0,-100.00,SSE,152,17.0,-999.0,84,0.00,,,-99.99,,2013-06-01 18:00:00,
2013-06-01 13:22:00,82.0,77.0,-100.00,SSE,152,17.0,-999.0,84,0.00,,,-99.99,,2013-06-01 18:22:00,
2013-06-01 13:32:00,82.0,77.0,-100.00,SSE,152,17.0,-999.0,84,0.00,,,-99.99,,2013-06-01 18:32:00,
2013-06-01 13:42:00,82.0,77.0,-100.00,SSE,152,17.0,-999.0,84,0.00,,,-99.99,,2013-06-01 18:42:00,
2013-06-01 13:52:00,82.0,77.0,-100.00,SSE,152,17.0,-999.0,84,0.00,,,-99.99,,2013-06-01 18:52:00,
2013-06-01 14:00:00,82.0,77.0,-100.00,SE,143,17.0,-999.0,84,0.00,,,-99.99,,2013-06-01 19:00:00,
2013-06-01 14:21:00,82.0,77.0,-100.00,SE,143,17.0,-999.0,84,0.00,,,-99.99,,2013-06-01 19:21:00,
2013-06-01 14:32:00,82.0,77.0,-100.00,SE,143,17.0,-999.0,84,0.00,,,-99.99,,2013-06-01 19:32:00,
2013-06-01 14:42:00,82.0,77.0,-100.00,SE,143,17.0,-999.0,84,0.00,,,-99.99,,2013-06-01 19:42:00,
2013-06-01 14:52:00,82.0,77.0,-100.00,SE,143,17.0,-999.0,84,0.00,,,-99.99,,2013-06-01 19:52:00,
2013-06-01 15:00:00,82.0,77.0,-100.00,SE,141,18.0,-999.0,84,0.00,,,-99.99,,2013-06-01 20:00:00,
2013-06-01 15:21:00,82.0,77.0,-100.00,SE,141,18.0,-999.0,84,0.00,,,-99.99,,2013-06-01 20:21:00,
2013-06-01 15:32:00,82.0,77.0,-100.00,SE,141,18.0,-999.0,84,0.00,,,-99.99,,2013-06-01 20:32:00,
2013-06-01 15:42:00,82.0,77.0,-100.00,SE,141,18.0,-999.0,84,0.00,,,-99.99,,2013-06-01 20:42:00,
2013-06-01 15:52:00,82.0,77.0,-100.00,SE,141,18.0,-999.0,84,0.00,,,-99.99,,2013-06-01 20:52:00,
2013-06-01 16:00:00,82.0,77.0,-100.00,SE,130,20.0,-999.0,85,0.00,,,-99.99,,2013-06-01 21:00:00,
2013-06-01 16:21:00,82.0,77.0,-100.00,SE,130,20.0,-999.0,85,0.00,,,-99.99,,2013-06-01 21:21:00,
2013-06-01 16:33:00,82.0,77.0,-100.00,SE,130,20.0,-999.0,85,0.00,,,-99.99,,2013-06-01 21:33:00,
2013-06-01 16:42:00,82.0,77.0,-100.00,SE,130,20.0,-999.0,85,0.00,,,-99.99,,2013-06-01 21:42:00,
2013-06-01 16:53:00,82.0,77.0,-100.00,SE,130,20.0,-999.0,85,0.00,,,-99.99,,2013-06-01 21:53:00,
2013-06-01 17:00:00,82.0,77.0,-100.00,SE,124,20.0,-999.0,85,0.00,,,-99.99,,2013-06-01 22:00:00,
2013-06-01 17:23:00,82.0,77.0,-100.00,SE,124,20.0,-999.0,85,0.00,,,-99.99,,2013-06-01 22:23:00,
2013-06-01 17:33:00,82.0,77.0,-100.00,SE,124,20.0,-999.0,85,0.00,,,-99.99,,2013-06-01 22:33:00,
2013-06-01 17:42:00,82.0,77.0,-100.00,SE,124,20.0,-999.0,85,0.00,,,-99.99,,2013-06-01 22:42:00,
2013-06-01 17:53:00,82.0,77.0,-100.00,SE,124,20.0,-999.0,85,0.00,,,-99.99,,2013-06-01 22:53:00,
2013-06-01 18:00:00,82.0,77.0,-100.00,ESE,118,20.0,-999.0,85,0.00,,,-99.99,,2013-06-01 23:00:00,
2013-06-01 18:22:00,82.0,77.0,-100.00,ESE,118,20.0,-999.0,85,0.00,,,-99.99,,2013-06-01 23:22:00,
2013-06-01 18:32:00,82.0,77.0,-100.00,ESE,118,20.0,-999.0,85,0.00,,,-99.99,,2013-06-01 23:32:00,
2013-06-01 18:42:00,82.0,77.0,-100.00,ESE,118,20.0,-999.0,85,0.00,,,-99.99,,2013-06-01 23:42:00,
2013-06-01 18:52:00,82.0,77.0,-100.00,ESE,118,20.0,-999.0,85,0.00,,,-99.99,,2013-06-01 23:52:00,
2013-06-01 19:00:00,82.0,77.0,-100.00,ESE,114,20.0,-999.0,86,0.00,,,-99.99,,2013-06-02 00:00:00,
2013-06-01 19:22:00,82.0,77.0,-100.00,ESE,114,20.0,-999.0,86,0.00,,,-99.99,,2013-06-02 00:22:00,
2013-06-01 19:32:00,82.0,77.0,-100.00,ESE,114,20.0,-999.0,86,0.00,,,-99.99,,2013-06-02 00:32:00,
2013-06-01 19:42:00,82.0,77.0,-100.00,ESE,114,20.0,-999.0,86,0.00,,,-99.99,,2013-06-02 00:42:00,
2013-06-01 19:52:00,82.0,77.0,-100.00,ESE,114,20.0,-999.0,86,0.00,,,-99.99,,2013-06-02 00:52:00,
2013-06-01 20:00:00,82.0,77.0,-100.00,ESE,112,18.0,-999.0,86,0.00,,,-99.99,,2013-06-02 01:00:00,
2013-06-01 20:21:00,82.0,77.0,-100.00,ESE,112,18.0,-999.0,86,0.00,,,-99.99,,2013-06-02 01:21:00,
2013-06-01 20:32:00,82.0,77.0,-100.00,ESE,112,18.0,-999.0,86,0.00,,,-99.99,,2013-06-02 01:32:00,
2013-06-01 20:42:00,82.0,77.0,-100.00,ESE,112,18.0,-999.0,86,0.00,,,-99.99,,2013-06-02 01:42:00,
2013-06-01 20:52:00,82.0,77.0,-100.00,ESE,112,18.0,-999.0,86,0.00,,,-99.99,,2013-06-02 01:52:00,
2013-06-01 21:00:00,81.0,77.0,-100.00,ESE,111,18.0,-999.0,86,0.00,,,-99.99,,2013-06-02 02:00:00,
2013-06-01 21:21:00,81.0,77.0,-100.00,ESE,111,18.0,-999.0,86,0.00,,,-99.99,,2013-06-02 02:21:00,
2013-06-01 21:32:00,81.0,77.0,-100.00,ESE,111,18.0,-999.0,86,0.00,,,-99.99,,2013-06-02 02:32:00,
2013-06-01 21:42:00,81.0,77.0,-100.00,ESE,111,18.0,-999.0,86,0.00,,,-99.99,,2013-06-02 02:42:00,
2013-06-01 21:52:00,81.0,77.0,-100.00,ESE,111,18.0,-999.0,86,0.00,,,-99.99,,2013-06-02 02:52:00,
2013-06-01 22:00:00,81.0,77.0,-100.00,ESE,116,18.0,-999.0,87,0.00,,,-99.99,,2013-06-02 03:00:00,
2013-06-01 22:21:00,81.0,77.0,-100.00,ESE,116,18.0,-999.0,87,0.00,,,-99.99,,2013-06-02 03:21:00,
2013-06-01 22:33:00,81.0,77.0,-100.00,ESE,116,18.0,-999.0,87,0.00,,,-99.99,,2013-06-02 03:33:00,
2013-06-01 22:43:00,81.0,77.0,-100.00,ESE,116,18.0,-999.0,87,0.00,,,-99.99,,2013-06-02 03:43:00,
2013-06-01 22:53:00,81.0,77.0,-100.00,ESE,116,18.0,-999.0,87,0.00,,,-99.99,,2013-06-02 03:53:00,
2013-06-01 23:00:00,81.0,77.0,-100.00,SE,126,15.0,-999.0,87,0.00,,,-99.99,,2013-06-02 04:00:00,
2013-06-01 23:23:00,81.0,77.0,-100.00,SE,126,15.0,-999.0,87,0.00,,,-99.99,,2013-06-02 04:23:00,
2013-06-01 23:33:00,81.0,77.0,-100.00,SE,126,15.0,-999.0,87,0.00,,,-99.99,,2013-06-02 04:33:00,
2013-06-01 23:42:00,81.0,77.0,-100.00,SE,126,15.0,-999.0,87,0.00,,,-99.99,,2013-06-02 04:42:00,
2013-06-01 23:53:00,81.0,77.0,-100.00,SE,126,15.0,-999.0,87,0.00,,,-99.99,,2013-06-02 04:53:00,